Regional Weather Roundup
Issued by NWS

Home | Current Version | Previous Version | Graphics & Text | Print | Product List | Glossary On
Versions: 1 2 3 4 5 6 7 8 9 10 11 12 13 14 15 16 17 18 19 20 21 22 23 24 25 26 27 28 29 30 31 32 33 34 35 36 37 38 39 40 41 42 43 44 45 46 47 48 49 50
000
ASUS45 KABQ 200910
RWRNM
WEATHER ROUNDUP FOR NEW MEXICO
NATIONAL WEATHER SERVICE ALBUQUERQUE NM
300 AM MDT SUN APR 20 2014

NOTE: "FAIR" MEANS FEW OR NO CLOUDS BELOW 12,000 FEET AGL WITH NO
       SIGNIFICANT WEATHER OR OBSTRUCTIONS TO VISION.

      THIS PRODUCT IS RELEASED AS TWO VERSIONS.  ONE VERSION NEAR
      THE TOP OF THE HOUR CONTAINING PRELIMINARY DATA FROM ALBUQUERQUE
      AND OTHER STATIONS.  A FINAL VERSION WITH ADDITIONAL DATA IS
      ISSUED ABOUT 10 MINUTES AFTER THE HOUR.

NMZ501-503-504-510>518-201000-
NORTHWEST PLATEAU/NORTHCENTRAL MOUNTAINS

CITY           SKY/WX    TMP DP  RH WIND       PRES   REMARKS
FARMINGTON     CLEAR     49  34  56 CALM      30.08S
LOS ALAMOS     CLOUDY    46  40  82 CALM      30.15F
SANTA FE       CLOUDY    48  42  80 CALM      30.12F
TAOS           CLOUDY    43  39  87 CALM      30.18S
ANGEL FIRE     DRIZZLE   41  38  92 SE3       30.18F

$$
NMZ402-403-502-505>509-201000-
WESTCENTRAL MOUNTAINS/SOUTHWEST MOUNTAINS

CITY           SKY/WX    TMP DP  RH WIND       PRES   REMARKS
GALLUP         PTCLDY    43  37  79 CALM      30.18F
GRANTS         CLOUDY    37  32  82 CALM      30.18S
SILVER CITY    MOCLDY    46  41  81 NW3       30.17F

$$
NMZ407-409-411-412-201000-
SOUTHERN DESERTS

CITY           SKY/WX    TMP DP  RH WIND       PRES   REMARKS
LORDSBURG      FAIR      50  46  87 S5        30.12F
DEMING         MOCLDY    47  46  97 N5        30.12F
LAS CRUCES     CLOUDY    46  40  79 W3        30.13S
HOLLOMAN AFB   PTCLDY    46  46 100 E5        30.10S
ALAMOGORDO     PTCLDY    48  48 100 N3        30.11F
T OR C         CLOUDY    52  48  86 CALM      30.11F

$$
NMZ519>523-201000-
CENTRAL VALLEYS/CENTRAL HIGHLANDS

CITY           SKY/WX    TMP DP  RH WIND       PRES   REMARKS
ALBUQUERQUE    CLOUDY    48  46  93 SE7       30.12F
DOUBLE EAGLE   MOCLDY    45  42  91 S3        30.13S
MORIARTY ARPT  PTSUNNY   45  41  86 NW7       30.13F
CLINES CORNERS MOCLDY    43  40  89 NW12      30.11F
BELEN          CLOUDY    49  48  96 SE5       30.12S
SOCORRO        CLOUDY    51  48  89 S6        30.11F

$$
NMZ524>526-539-540-201000-
SOUTHCENTRAL MOUNTAINS

CITY           SKY/WX    TMP DP  RH WIND       PRES   REMARKS
RUIDOSO        MOCLDY    41  39  93 N3        30.17S

$$
NMZ527>531-201000-
NORTHEAST HIGHLANDS/NORTHEAST PLAINS

CITY           SKY/WX    TMP DP  RH WIND       PRES   REMARKS
LAS VEGAS      MOCLDY    44  39  82 NW5       30.09F
RATON          MOCLDY    50  42  74 N10       30.05F
CLAYTON        PTCLDY    48  44  86 SW12      30.03F

$$
NMZ532>537-201000-
EASTCENTRAL PLAINS

CITY           SKY/WX    TMP DP  RH WIND       PRES   REMARKS
TUCUMCARI      PTCLDY    54  49  83 S14       30.03F
CANNON AFB     PTCLDY    49  46  91 SW8       30.09S
CLOVIS AIRPORT CLEAR     48  45  87 W8        30.11S

$$
NMZ028-029-538-201000-
SOUTHEAST PLAINS

CITY           SKY/WX    TMP DP  RH WIND       PRES   REMARKS
ROSWELL        CLEAR     49  45  86 CALM      30.06S
ARTESIA        CLEAR     50  48  93 SW6       30.06F
CARLSBAD       PTCLDY    56  53  90 S8        30.05S
HOBBS          FOG       50  50 100 SW6       30.08F VSB 1/2


$$



USA.gov is the U.S. government's official web portal to all federal, state and local government web resources and services.